User: anonymous   Login
Location: Unspecified
(43.4680°N, 87.1740°E)
Time: 12:50:38
(UTC+00:00)
Language:

IRIDIUM 33 DEB - Orbit

View from above orbital plane
View from above orbital plane
View from above satellite
View from above satellite

Ground track
Ground track

The orbit data is extracted from the following two-line orbital elements,

1 38016U 97051YC  21295.75014105  .00026800  00000-0  21770-2 0  9997
2 38016  86.3899 288.5645 0017898 312.6592 222.3081 14.99362279419028
Epoch (UTC): 22 October 2021 18:00:12
Eccentricity: 0.0017898
inclination: 86.3899°
perigee height: 556 km
apogee height: 581 km
right ascension of ascending node: 288.5645°
argument of perigee: 312.6592°
revolutions per day: 14.99362279
mean anomaly at epoch: 222.3081°
orbit number at epoch: 41902

The dashed part of the orbit path shows where the satellite is in the earth's shadow,  

DLR